FENGYUN 1C DEB, 32216

Orbit data source: Space-Track

FENGYUN 1C DEB, 32216 is space debris in SSO originally from a launch on Mon, 10 May 1999 UTC launched from the Taiyaun Space Center, China (TSC). Fengyun 1C debris stems from the Chinese weather satellite Fengyun-1C, which was intentionally destroyed by a Chinese anti-satellite missile in 2007. This event dramatically increased the amount of space debris, with thousands of trackable fragments posing hazards to satellites and human spaceflight. The Fengyun 1C debris cloud has become a focal point in discussions about space sustainability and the need for international regulations to prevent the creation of new debris.

Loading next visibility...
Identifier
32216, 1999-025CVN
Orbit
SSO
Country
Flag of CNCN / PRC
Related business
Manufacturer
Unknown
Mission
Spacecraft
Bus & Motor
Unknown
Mass
Unknown
Launch date (UTC)
1999-05-10 (27 years ago)
Launch vehicle
Unknown
Launch site
Taiyaun Space Center, China (TSC)
Object type
Payload
Rocket body
Debris
Shape & HBR
Unknown shape, 1.1 m
Radar Cross Section
Medium (>0.1 m² and <1 m²)

Expand to show TLE details & history
Last TLE update: 4 months ago

TLE from 4 months ago
0 FENGYUN 1C DEB
1 32216U 99025CVN 26055.01228725  .00115767  00000-0  59380-2 0  9998
2 32216  99.5157 136.7955 0013772  16.9932 343.1753 15.15930920638400
Epoch: 2026-02-24T00:17Z
TLE epoch observation values (Epoch: 2026-02-24T00:17:41.618Z)
Latitude
0.00002°
Longitude
-21.52584°
Altitude
512.078 km
Speed
7.613 km/s
True Right ascension
09h 07m 10s
True Declination
0° 00' 00"
Sunlit
Object was in full shadow at epoch
Visualization orbit readout
Latitude
Unknown
Longitude
Unknown
Altitude
Unknown
Speed
Unknown
Apparent Right ascension
Unknown
Apparent Declination
Unknown
Sunlit
N/A
Visualization observer readout
Local Sidereal Time
04:54:11
Azimuth
Unknown
Elevation
Unknown
Doppler factor
Unknown
Orbital elements
Apogee altitude
524.721 km
Perigee altitude
505.734 km
Semi-major axis
6,893.365 km
Eccentricity
0.00138
Inclination
99.5157°
RAAN
136.7955°
Arg. of periapsis
16.9932°
True anomaly
343.12955°
Mean anomaly
343.1753°
Eccentric anomaly
343.15243°
Mean motion
3.79224 °/min
Orbital period
94.93 mins
BSTAR
0.005938
Loading maneuver chart data...
Computing Atmospheric mass density...

Documentation

Showing up to 5 results
|